Weather History for Jackson, MI

Change the Weather History Date:

Wednesday, October 17, 2012

  Actual Average Record
Temperature  
Mean Temperature 64 °F 50 °F  
Max Temperature 73 °F 60 °F 84 °F (1950)
Min Temperature 55 °F 40 °F 21 °F (1977)
Degree Days  
Heating Degree Days 1 15  
Month to date heating degree days 246 218  
Since 1 July heating degree days 431 406  
Cooling Degree Days 0 0  
Month to date cooling degree days 0 3  
Year to date cooling degree days 868 589  
Growing Degree Days 14 (Base 50)    
Moisture  
Dew Point 47 °F    
Average Humidity 61    
Maximum Humidity 86    
Minimum Humidity 35    
Precipitation  
Precipitation 0.26 in 0.07 in 1.53 in (1988)
Month to date precipitation 1.96 1.54  
Year to date precipitation 21.66 25.94  
Sea Level Pressure  
Sea Level Pressure 29.63 in    
Wind  
Wind Speed 12 mph (South)    
Max Wind Speed 26 mph    
Max Gust Speed 37 mph    
Visibility 10 miles    
Events Rain    
T = Trace of Precipitation, MM = Missing Value Source: NWS Daily Summary

Daily Weather History Graph

Daily Weather History Graph

Search for Another Location

Airport:

Trip Planner

Search our weather history database for the weather conditions in past years. The results will help you decide how hot, cold, wet, or windy it might be!

Date:

Astronomy

Oct. 17, 2012 Rise Set
Actual Time 7:53 AM EDT 6:52 PM EDT
Civil Twilight 7:25 AM EDT 7:20 PM EDT
Nautical Twilight 6:52 AM EDT 7:52 PM EDT
Astronomical Twilight 6:20 AM EDT 8:25 PM EDT
Moon 10:30 AM EDT (10/17) 8:23 PM EDT (10/17)
Length of Visible Light 11h 55m
Length of Day
10h 58m
Waxing Crescent, 7% of the Moon is Illuminated
Oct 17
Waxing Crescent
Oct 21
First Quarter
Oct 29
Full
Nov 6
Last Quarter
Nov 13
New

Hourly Weather History & Observations

Time (EDT) Temp. Dew Point Humidity Pressure Visibility Wind Dir Wind Speed Gust Speed Precip Events Conditions
12:56 AM 57.0 °F 41.0 °F 55% 29.71 in 10.0 mi South 11.5 mph - N/A   Overcast
1:56 AM 55.9 °F 43.0 °F 62% 29.70 in 10.0 mi South 11.5 mph - 0.00 in   Overcast
2:56 AM 55.9 °F 44.1 °F 64% 29.71 in 10.0 mi South 6.9 mph - 0.00 in Rain Light Rain
3:56 AM 57.0 °F 43.0 °F 59% 29.69 in 10.0 mi South 11.5 mph - 0.00 in   Overcast
4:56 AM 57.9 °F 45.0 °F 62% 29.68 in 10.0 mi South 11.5 mph - N/A   Overcast
6:56 AM 55.9 °F 46.0 °F 69% 29.68 in 10.0 mi South 9.2 mph - N/A   Clear
7:56 AM 55.0 °F 46.0 °F 72% 29.68 in 10.0 mi South 9.2 mph - N/A   Clear
8:56 AM 55.9 °F 46.0 °F 69% 29.68 in 10.0 mi South 12.7 mph - N/A   Clear
9:56 AM 60.1 °F 46.9 °F 62% 29.69 in 10.0 mi South 11.5 mph - N/A   Clear
10:56 AM 63.0 °F 46.9 °F 56% 29.68 in 10.0 mi SSW 10.4 mph 23.0 mph N/A   Clear
11:56 AM 66.9 °F 46.9 °F 49% 29.64 in 10.0 mi SSW 12.7 mph 26.5 mph N/A   Clear
12:56 PM 69.1 °F 45.0 °F 42% 29.63 in 10.0 mi South 19.6 mph 29.9 mph N/A   Clear
1:56 PM 72.0 °F 44.1 °F 37% 29.60 in 10.0 mi SSW 21.9 mph 29.9 mph N/A   Clear
2:56 PM 73.0 °F 45.0 °F 37% 29.58 in 10.0 mi South 16.1 mph 23.0 mph N/A   Clear
3:56 PM 71.1 °F 45.0 °F 39% 29.58 in 10.0 mi SSW 11.5 mph 33.4 mph N/A   Partly Cloudy
4:56 PM 71.1 °F 46.0 °F 41% 29.55 in 10.0 mi South 17.3 mph 27.6 mph N/A   Mostly Cloudy
5:56 PM 70.0 °F 46.9 °F 44% 29.55 in 10.0 mi South 8.1 mph 20.7 mph N/A   Overcast
6:56 PM 70.0 °F 46.0 °F 42% 29.57 in 10.0 mi SSW 17.3 mph 25.3 mph N/A   Overcast
7:56 PM 60.1 °F 52.0 °F 75% 29.60 in 10.0 mi South 6.9 mph - 0.02 in   Overcast
8:56 PM 57.9 °F 54.0 °F 87% 29.60 in 7.0 mi South 12.7 mph 20.7 mph 0.08 in Rain Rain
9:56 PM 57.9 °F 55.0 °F 90% 29.59 in 10.0 mi South 13.8 mph 20.7 mph 0.05 in   Overcast
10:56 PM 57.0 °F 54.0 °F 89% 29.54 in 10.0 mi SE 11.5 mph 20.7 mph 0.06 in Rain Light Rain
11:56 PM 57.9 °F 54.0 °F 87% 29.52 in 9.0 mi SE 11.5 mph - 0.02 in Rain Light Rain